When you browse on this site, cookies collect data to enhance your experience and personalize the content and advertising you see.
Visit our Privacy Policy to learn more. By continuing to use the site, you agree to this use of cookies and data.
  • In Germany
  • List of Countries
  • For 7 days
  • Water Temperature
  • Weather Map
  • Weather Widgets
  • user-avatar
    Login

    Hourly Weather Mons

    Today, 26 May, Tuesday

    Time Temperature Precipitation Wind Pressure Humidity
    00:00 +10°C° 0 mm 2 mps 773 mmHg 86%
    01:00 +10°C° 0 mm 2 mps 773 mmHg 88%
    02:00 +11°C° 0 mm 1 mps 773 mmHg 89%
    03:00 +11°C° 0 mm 1 mps 773 mmHg 90%
    04:00 +12°C° 0 mm 1 mps 773 mmHg 88%
    05:00 +13°C° 0 mm 1 mps 773 mmHg 86%
    06:00 +13°C° 0 mm 0 mps 773 mmHg 87%
    07:00 +16°C° 0 mm 1 mps 773 mmHg 79%
    08:00 +19°C° 0 mm 1 mps 773 mmHg 71%
    09:00 +20°C° 0 mm 2 mps 773 mmHg 62%
    10:00 +21°C° 0 mm 2 mps 773 mmHg 60%
    11:00 +22°C° 0 mm 3 mps 773 mmHg 57%
    12:00 +24°C° 0 mm 3 mps 773 mmHg 54%
    13:00 +24°C° 0 mm 3 mps 773 mmHg 54%
    14:00 +24°C° 0 mm 3 mps 773 mmHg 54%
    15:00 +23°C° 0 mm 4 mps 772 mmHg 54%
    16:00 +22°C° 0 mm 4 mps 772 mmHg 60%
    17:00 +21°C° 0 mm 3 mps 772 mmHg 65%
    18:00 +20°C° 0 mm 3 mps 772 mmHg 70%
    19:00 +18°C° 0 mm 3 mps 772 mmHg 74%
    20:00 +17°C° 0 mm 3 mps 773 mmHg 78%
    21:00 +15°C° 0 mm 2 mps 773 mmHg 82%
    22:00 +14°C° 0 mm 2 mps 773 mmHg 84%
    23:00 +13°C° 0 mm 2 mps 773 mmHg 86%

    Tomorrow, 27 May, Wednesday

    Time Temperature Precipitation Wind Pressure Humidity
    00:00 +13°C° 0 mm 1 mps 773 mmHg 88%
    01:00 +12°C° 0 mm 1 mps 773 mmHg 88%
    02:00 +12°C° 0 mm 1 mps 773 mmHg 89%
    03:00 +12°C° 0 mm 1 mps 773 mmHg 89%
    04:00 +13°C° 0 mm 1 mps 773 mmHg 86%
    05:00 +14°C° 0 mm 1 mps 773 mmHg 83%
    06:00 +15°C° 0 mm 1 mps 773 mmHg 79%
    07:00 +18°C° 0 mm 1 mps 773 mmHg 74%
    08:00 +18°C° 0 mm 2 mps 773 mmHg 68%
    09:00 +20°C° 0 mm 2 mps 773 mmHg 62%
    10:00 +21°C° 0 mm 2 mps 772 mmHg 60%
    11:00 +22°C° 0 mm 3 mps 772 mmHg 58%
    12:00 +24°C° 0 mm 3 mps 772 mmHg 56%
    13:00 +24°C° 0 mm 3 mps 772 mmHg 58%
    14:00 +22°C° 0 mm 4 mps 772 mmHg 60%
    15:00 +22°C° 0 mm 4 mps 771 mmHg 62%
    16:00 +21°C° 0 mm 4 mps 771 mmHg 64%
    17:00 +20°C° 0 mm 4 mps 771 mmHg 66%
    18:00 +19°C° 0 mm 4 mps 771 mmHg 68%
    19:00 +17°C° 0 mm 4 mps 772 mmHg 70%
    20:00 +14°C° 0 mm 4 mps 772 mmHg 72%
    21:00 +12°C° 0 mm 3 mps 772 mmHg 75%
    22:00 +11°C° 0 mm 3 mps 772 mmHg 78%
    23:00 +10°C° 0 mm 3 mps 772 mmHg 82%

    Day after tomorrow, 28 May, Thursday

    Time Temperature Precipitation Wind Pressure Humidity
    00:00 +10°C° 0 mm 3 mps 772 mmHg 85%
    01:00 +9°C° 0 mm 3 mps 772 mmHg 87%
    02:00 +9°C° 0 mm 3 mps 772 mmHg 89%
    03:00 +9°C° 0 mm 3 mps 772 mmHg 91%
    04:00 +10°C° 0 mm 4 mps 772 mmHg 86%
    05:00 +10°C° 0 mm 4 mps 772 mmHg 81%
    06:00 +11°C° 0 mm 4 mps 772 mmHg 76%
    07:00 +13°C° 0 mm 5 mps 772 mmHg 71%
    08:00 +14°C° 0 mm 5 mps 772 mmHg 66%
    09:00 +16°C° 0 mm 5 mps 772 mmHg 61%
    10:00 +17°C° 0 mm 5 mps 771 mmHg 58%
    11:00 +19°C° 0 mm 6 mps 771 mmHg 55%
    12:00 +20°C° 0 mm 6 mps 770 mmHg 51%
    13:00 +20°C° 0 mm 6 mps 770 mmHg 51%
    14:00 +21°C° 0 mm 6 mps 769 mmHg 51%
    15:00 +21°C° 0 mm 6 mps 769 mmHg 51%
    16:00 +20°C° 0 mm 5 mps 769 mmHg 56%
    17:00 +19°C° 0 mm 4 mps 769 mmHg 61%
    18:00 +19°C° 0 mm 4 mps 769 mmHg 66%
    19:00 +17°C° 0 mm 4 mps 769 mmHg 68%
    20:00 +14°C° 0 mm 4 mps 769 mmHg 69%
    21:00 +13°C° 0 mm 4 mps 769 mmHg 71%
    22:00 +12°C° 0 mm 4 mps 769 mmHg 74%
    23:00 +11°C° 0 mm 4 mps 769 mmHg 77%

    29 May, Friday

    Time Temperature Precipitation Wind Pressure Humidity
    00:00 +10°C° 0 mm 4 mps 769 mmHg 80%
    01:00 +9°C° 0 mm 3 mps 769 mmHg 82%
    02:00 +9°C° 0 mm 3 mps 768 mmHg 84%
    03:00 +8°C° 0 mm 3 mps 768 mmHg 86%
    04:00 +9°C° 0 mm 3 mps 768 mmHg 82%
    05:00 +11°C° 0 mm 3 mps 768 mmHg 79%
    06:00 +12°C° 0 mm 3 mps 768 mmHg 76%
    07:00 +13°C° 0 mm 4 mps 768 mmHg 70%
    08:00 +15°C° 0 mm 4 mps 768 mmHg 64%
    09:00 +17°C° 0 mm 5 mps 768 mmHg 58%
    10:00 +19°C° 0 mm 5 mps 767 mmHg 54%
    11:00 +20°C° 0 mm 5 mps 767 mmHg 50%
    12:00 +21°C° 0 mm 4 mps 767 mmHg 47%
    13:00 +21°C° 0 mm 5 mps 766 mmHg 48%
    14:00 +21°C° 0 mm 5 mps 766 mmHg 50%
    15:00 +21°C° 0 mm 5 mps 765 mmHg 52%
    16:00 +20°C° 0 mm 4 mps 765 mmHg 56%
    17:00 +20°C° 0 mm 4 mps 765 mmHg 61%
    18:00 +19°C° 0 mm 3 mps 765 mmHg 66%
    19:00 +17°C° 0 mm 3 mps 765 mmHg 69%
    20:00 +14°C° 0 mm 3 mps 765 mmHg 73%
    21:00 +13°C° 0 mm 3 mps 766 mmHg 76%
    22:00 +12°C° 0 mm 3 mps 765 mmHg 80%
    23:00 +11°C° 0 mm 3 mps 765 mmHg 84%

    30 May, Saturday

    Time Temperature Precipitation Wind Pressure Humidity
    00:00 +11°C° 0 mm 3 mps 765 mmHg 88%
    01:00 +10°C° 0 mm 3 mps 765 mmHg 89%
    02:00 +10°C° 0 mm 3 mps 765 mmHg 90%
    03:00 +9°C° 0 mm 3 mps 765 mmHg 91%
    04:00 +11°C° 0 mm 3 mps 765 mmHg 87%
    05:00 +13°C° 0 mm 2 mps 765 mmHg 82%
    06:00 +14°C° 0 mm 2 mps 765 mmHg 78%
    07:00 +16°C° 0 mm 3 mps 765 mmHg 72%
    08:00 +18°C° 0 mm 3 mps 765 mmHg 65%
    09:00 +20°C° 0 mm 3 mps 765 mmHg 59%
    10:00 +20°C° 0 mm 3 mps 765 mmHg 56%
    11:00 +21°C° 0 mm 3 mps 764 mmHg 54%
    12:00 +22°C° 0 mm 3 mps 764 mmHg 51%
    13:00 +22°C° 0 mm 3 mps 764 mmHg 51%
    14:00 +24°C° 0 mm 3 mps 763 mmHg 51%
    15:00 +23°C° 0 mm 4 mps 763 mmHg 51%
    16:00 +22°C° 0 mm 3 mps 763 mmHg 55%
    17:00 +21°C° 0 mm 3 mps 763 mmHg 60%
    18:00 +21°C° 0 mm 2 mps 763 mmHg 65%
    19:00 +19°C° 0 mm 3 mps 763 mmHg 68%
    20:00 +17°C° 0 mm 3 mps 763 mmHg 72%
    21:00 +14°C° 0 mm 3 mps 763 mmHg 75%
    22:00 +13°C° 0 mm 3 mps 763 mmHg 77%
    23:00 +13°C° 0 mm 3 mps 763 mmHg 79%

    31 May, Sunday

    Time Temperature Precipitation Wind Pressure Humidity
    00:00 +12°C° 0 mm 3 mps 763 mmHg 80%
    01:00 +11°C° 0 mm 3 mps 763 mmHg 83%
    02:00 +12°C° 0 mm 2 mps 763 mmHg 85%
    03:00 +10°C° 0 mm 2 mps 763 mmHg 87%
    04:00 +12°C° 0 mm 2 mps 763 mmHg 84%
    05:00 +14°C° 0 mm 2 mps 763 mmHg 80%
    06:00 +15°C° 0 mm 1 mps 763 mmHg 76%
    07:00 +18°C° 0 mm 1 mps 763 mmHg 70%
    08:00 +20°C° 0 mm 1 mps 763 mmHg 65%
    09:00 +21°C° 0 mm 1 mps 763 mmHg 59%
    10:00 +22°C° 0 mm 1 mps 762 mmHg 56%
    11:00 +23°C° 0 mm 2 mps 762 mmHg 52%
    12:00 +24°C° 0 mm 2 mps 762 mmHg 49%
    13:00 +24°C° 0 mm 2 mps 762 mmHg 50%
    14:00 +24°C° 0 mm 3 mps 762 mmHg 52%
    15:00 +24°C° 0 mm 3 mps 761 mmHg 53%
    16:00 +22°C° 0 mm 3 mps 761 mmHg 57%
    17:00 +22°C° 0 mm 3 mps 761 mmHg 60%
    18:00 +21°C° 0 mm 2 mps 761 mmHg 64%
    19:00 +19°C° 0 mm 3 mps 761 mmHg 64%
    20:00 +17°C° 0 mm 3 mps 761 mmHg 65%
    21:00 +15°C° 0 mm 4 mps 761 mmHg 65%
    22:00 +14°C° 0 mm 4 mps 761 mmHg 66%
    23:00 +12°C° 0 mm 3 mps 761 mmHg 67%
    Show more